Change the Weather History Date:

Sunday, October 6, 2013

  Actual Average Record
Temperature  
Mean Temperature 78 °F -  
Max Temperature 86 °F 82 °F 91 °F (1954)
Min Temperature 68 °F 64 °F 49 °F (1985)
Cooling Degree Days 12    
Growing Degree Days 28 (Base 50)    
Moisture  
Dew Point 70 °F    
Average Humidity 80    
Maximum Humidity 100    
Minimum Humidity 56    
Precipitation  
Precipitation 0.00 in - - ()
Sea Level Pressure  
Sea Level Pressure 29.88 in    
Wind  
Wind Speed 5 mph (NNW)    
Max Wind Speed 20 mph    
Max Gust Speed 29 mph    
Visibility 10 miles    
Events      
Averages and records for this station are not official NWS values.
T = Trace of Precipitation, MM = Missing Value Source: NWS Daily Summary

Daily Weather History Graph

Daily Weather History Graph

Search for Another Location

Airport or City:

Trip Planner

Search our weather history database for the weather conditions in past years. The results will help you decide how hot, cold, wet, or windy it might be!

Date:

Astronomy

Oct. 06, 2013 Rise Set
Actual Time 6:57 AM CDT 6:40 PM CDT
Civil Twilight 6:33 AM CDT 7:04 PM CDT
Nautical Twilight 6:05 AM CDT 7:31 PM CDT
Astronomical Twilight 5:38 AM CDT 7:59 PM CDT
Moon 8:32 AM CDT (10/6) 7:50 PM CDT (10/6)
Length of Visible Light 12h 30m
Length of Day
11h 42m
Waxing Crescent, 3% of the Moon is Illuminated
Oct 6
Waxing Crescent
Oct 11
First Quarter
Oct 18
Full
Oct 26
Last Quarter
Nov 3
New

Hourly Weather History & Observations

Time (CDT) Temp. Heat Index Dew Point Humidity Pressure Visibility Wind Dir Wind Speed Gust Speed Precip Events Conditions
12:53 AM 75.0 °F - 72.0 °F 90% 29.90 in 10.0 mi Calm Calm - N/A   Scattered Clouds
1:53 AM 73.9 °F - 73.0 °F 97% 29.90 in 10.0 mi Calm Calm - N/A   Scattered Clouds
1:57 AM 73.4 °F - 73.4 °F 100% 29.89 in 10.0 mi Calm Calm - N/A   Mostly Cloudy
2:32 AM 75.2 °F - 73.4 °F 94% 29.87 in 10.0 mi Calm Calm - N/A   Mostly Cloudy
2:53 AM 75.9 °F - 73.9 °F 94% 29.87 in 10.0 mi Calm Calm - N/A   Scattered Clouds
3:53 AM 75.9 °F - 73.9 °F 94% 29.85 in 10.0 mi Calm Calm - N/A   Scattered Clouds
4:53 AM 75.0 °F - 73.0 °F 94% 29.86 in 10.0 mi Calm Calm - N/A   Scattered Clouds
5:53 AM 73.9 °F - 73.0 °F 97% 29.86 in 10.0 mi East 3.5 mph - N/A   Scattered Clouds
6:53 AM 73.9 °F - 73.0 °F 97% 29.86 in 10.0 mi Calm Calm - N/A   Scattered Clouds
7:53 AM 75.9 °F - 75.0 °F 97% 29.88 in 10.0 mi Calm Calm - N/A   Mostly Cloudy
8:53 AM 80.1 °F 85.4 °F 75.9 °F 87% 29.87 in 10.0 mi North 4.6 mph - N/A   Mostly Cloudy
9:40 AM 80.6 °F 86.2 °F 75.2 °F 84% 29.87 in 10.0 mi NNW 8.1 mph - N/A   Mostly Cloudy
9:53 AM 82.0 °F 88.6 °F 75.0 °F 79% 29.88 in 10.0 mi NW 6.9 mph - N/A   Mostly Cloudy
10:13 AM 82.4 °F 89.5 °F 75.2 °F 79% 29.87 in 10.0 mi NNW 8.1 mph - N/A   Mostly Cloudy
10:53 AM 82.9 °F 90.2 °F 75.0 °F 77% 29.89 in 10.0 mi NW 10.4 mph - N/A   Mostly Cloudy
11:53 AM 84.0 °F 91.9 °F 75.0 °F 74% 29.88 in 10.0 mi WNW 11.5 mph - N/A   Scattered Clouds
12:53 PM 84.9 °F 91.4 °F 73.0 °F 67% 29.86 in 10.0 mi NNW 11.5 mph - N/A   Scattered Clouds
1:53 PM 82.0 °F 87.4 °F 73.0 °F 74% 29.84 in 10.0 mi NW 18.4 mph 28.8 mph N/A   Scattered Clouds
2:53 PM 81.0 °F 85.2 °F 72.0 °F 74% 29.83 in 10.0 mi NNW 19.6 mph 25.3 mph N/A   Scattered Clouds
3:53 PM 79.0 °F - 70.0 °F 74% 29.84 in 10.0 mi NW 19.6 mph 25.3 mph N/A   Scattered Clouds
4:46 PM 75.2 °F - 68.0 °F 78% 29.83 in 10.0 mi NW 19.6 mph - N/A   Overcast
4:53 PM 75.9 °F - 68.0 °F 76% 29.85 in 10.0 mi NNW 15.0 mph 24.2 mph N/A   Overcast
5:53 PM 73.0 °F - 66.9 °F 81% 29.86 in 10.0 mi NNW 12.7 mph 20.7 mph N/A   Overcast
6:45 PM 71.6 °F - 64.4 °F 78% 29.86 in 10.0 mi NNW 11.5 mph 20.7 mph N/A   Mostly Cloudy
6:53 PM 73.0 °F - 64.9 °F 76% 29.88 in 10.0 mi NNW 13.8 mph - N/A   Mostly Cloudy
7:53 PM 73.0 °F - 62.1 °F 68% 29.90 in 10.0 mi NNW 11.5 mph 20.7 mph N/A   Scattered Clouds
8:53 PM 71.1 °F - 59.0 °F 66% 29.94 in 10.0 mi North 12.7 mph - N/A   Scattered Clouds
9:53 PM 70.0 °F - 55.0 °F 59% 29.96 in 10.0 mi NNW 16.1 mph 23.0 mph N/A   Scattered Clouds
10:53 PM 69.1 °F - 54.0 °F 58% 29.97 in 10.0 mi North 17.3 mph 21.9 mph N/A   Scattered Clouds
11:53 PM 68.0 °F - 52.0 °F 56% 29.97 in 10.0 mi North 13.8 mph - N/A   Mostly Cloudy